Time,TemperatureF,DewpointF,PressureIn,WindDirection,WindDirectionDegrees,WindSpeedMPH,WindSpeedGustMPH,Humidity,HourlyPrecipIn,Conditions,Clouds,dailyrainin,SoftwareType,DateUTC
2013-03-19 00:03:00,34.3,24.5,30.16,WSW,248,0.0,0.0,67,0.00,CLR,FEW,0.00,WeatherDisplay:10.37,2013-03-19 07:03:00,
2013-03-19 00:08:00,34.2,24.3,30.16,SSE,158,0.0,0.0,67,0.00,CLR,FEW,0.00,WeatherDisplay:10.37,2013-03-19 07:08:00,
2013-03-19 00:13:00,34.2,25.0,30.17,SSE,158,4.0,4.0,69,0.00,CLR,FEW,0.00,WeatherDisplay:10.37,2013-03-19 07:13:00,
2013-03-19 00:18:00,34.0,24.9,30.17,SSE,158,0.0,0.0,69,0.00,CLR,FEW,0.00,WeatherDisplay:10.37,2013-03-19 07:18:00,
2013-03-19 00:23:00,33.8,25.0,30.17,SSE,158,0.0,0.0,70,0.00,CLR,FEW,0.00,WeatherDisplay:10.37,2013-03-19 07:23:00,
2013-03-19 00:28:00,33.6,24.9,30.17,South,180,0.0,0.0,70,0.00,CLR,FEW,0.00,WeatherDisplay:10.37,2013-03-19 07:28:00,
2013-03-19 00:33:00,33.4,24.7,30.17,South,180,0.0,0.0,70,0.00,CLR,FEW,0.00,WeatherDisplay:10.37,2013-03-19 07:33:00,
2013-03-19 00:38:00,33.3,24.5,30.17,ENE,68,0.0,0.0,70,0.00,CLR,FEW,0.00,WeatherDisplay:10.37,2013-03-19 07:38:00,
2013-03-19 00:43:00,32.9,24.2,30.18,ENE,68,1.1,1.1,70,0.00,CLR,FEW,0.00,WeatherDisplay:10.37,2013-03-19 07:43:00,
2013-03-19 00:48:00,32.9,24.5,30.18,ENE,68,0.0,0.0,71,0.00,CLR,FEW,0.00,WeatherDisplay:10.37,2013-03-19 07:48:00,
2013-03-19 00:53:00,32.7,24.3,30.19,ENE,68,0.0,0.0,71,0.00,CLR,FEW,0.00,WeatherDisplay:10.37,2013-03-19 07:53:00,
2013-03-19 00:58:00,32.5,24.2,30.18,ENE,68,0.0,0.0,71,0.00,CLR,FEW,0.00,WeatherDisplay:10.37,2013-03-19 07:58:00,
2013-03-19 01:03:00,32.2,23.8,30.18,ENE,68,0.0,0.0,71,0.00,CLR,FEW,0.00,WeatherDisplay:10.37,2013-03-19 08:03:00,
2013-03-19 01:08:00,31.8,23.8,30.18,ENE,68,0.0,0.0,72,0.00,CLR,FEW,0.00,WeatherDisplay:10.37,2013-03-19 08:08:00,
2013-03-19 01:13:00,31.6,23.6,30.19,WNW,292,2.3,2.3,72,0.00,CLR,FEW,0.00,WeatherDisplay:10.37,2013-03-19 08:13:00,
2013-03-19 01:18:00,31.3,23.3,30.19,WNW,292,0.0,0.0,72,0.00,CLR,FEW,0.00,WeatherDisplay:10.37,2013-03-19 08:18:00,
2013-03-19 01:23:00,31.1,23.5,30.19,WNW,292,0.0,0.0,73,0.00,CLR,FEW,0.00,WeatherDisplay:10.37,2013-03-19 08:23:00,
2013-03-19 01:28:00,30.7,23.1,30.19,WNW,292,0.0,0.0,73,0.00,CLR,FEW,0.00,WeatherDisplay:10.37,2013-03-19 08:28:00,
2013-03-19 01:33:00,30.7,23.1,30.20,WNW,292,0.0,0.0,73,0.00,CLR,FEW,0.00,WeatherDisplay:10.37,2013-03-19 08:33:00,
2013-03-19 01:38:00,30.6,22.9,30.20,WNW,292,0.0,0.0,73,0.00,CLR,FEW,0.00,WeatherDisplay:10.37,2013-03-19 08:38:00,
2013-03-19 01:43:00,30.4,23.1,30.20,WNW,292,0.0,0.0,74,0.00,CLR,FEW,0.00,WeatherDisplay:10.37,2013-03-19 08:43:00,
2013-03-19 01:48:00,30.0,22.7,30.20,WNW,292,0.0,0.0,74,0.00,CLR,FEW,0.00,WeatherDisplay:10.37,2013-03-19 08:48:00,
2013-03-19 01:53:00,30.0,22.7,30.20,WNW,292,0.0,0.0,74,0.00,CLR,FEW,0.00,WeatherDisplay:10.37,2013-03-19 08:53:00,
2013-03-19 01:58:00,29.8,22.6,30.20,WNW,292,0.0,0.0,74,0.00,CLR,FEW,0.00,WeatherDisplay:10.37,2013-03-19 08:58:00,
2013-03-19 02:03:00,29.7,22.4,30.20,WNW,292,0.0,0.0,74,0.00,CLR,FEW,0.00,WeatherDisplay:10.37,2013-03-19 09:03:00,
2013-03-19 02:08:00,29.5,22.5,30.21,WSW,248,0.0,0.0,75,0.00,CLR,FEW,0.00,WeatherDisplay:10.37,2013-03-19 09:08:00,
2013-03-19 02:13:00,29.5,22.5,30.21,WSW,248,0.0,0.0,75,0.00,CLR,FEW,0.00,WeatherDisplay:10.37,2013-03-19 09:13:00,
2013-03-19 02:18:00,29.3,22.4,30.21,WSW,248,0.0,0.0,75,0.00,CLR,FEW,0.00,WeatherDisplay:10.37,2013-03-19 09:18:00,
2013-03-19 02:23:00,29.1,22.2,30.21,WSW,248,0.0,0.0,75,0.00,CLR,FEW,0.00,WeatherDisplay:10.37,2013-03-19 09:23:00,
2013-03-19 02:28:00,29.1,22.5,30.21,SSW,202,0.0,0.0,76,0.00,CLR,FEW,0.00,WeatherDisplay:10.37,2013-03-19 09:28:00,
2013-03-19 02:33:00,29.1,22.5,30.22,SSW,202,0.0,0.0,76,0.00,CLR,FEW,0.00,WeatherDisplay:10.37,2013-03-19 09:33:00,
2013-03-19 02:38:00,28.9,22.3,30.22,SSW,202,0.0,0.0,76,0.00,CLR,FEW,0.00,WeatherDisplay:10.37,2013-03-19 09:38:00,
2013-03-19 02:43:00,28.8,22.1,30.22,SSW,202,0.0,0.0,76,0.00,CLR,FEW,0.00,WeatherDisplay:10.37,2013-03-19 09:43:00,
2013-03-19 02:48:00,28.6,22.3,30.22,SSW,202,0.0,0.0,77,0.00,CLR,FEW,0.00,WeatherDisplay:10.37,2013-03-19 09:48:00,
2013-03-19 02:53:00,28.6,22.3,30.22,SSW,202,0.0,0.0,77,0.00,CLR,FEW,0.00,WeatherDisplay:10.37,2013-03-19 09:53:00,
2013-03-19 02:58:00,28.4,22.1,30.22,SSW,202,0.0,0.0,77,0.00,CLR,FEW,0.00,WeatherDisplay:10.37,2013-03-19 09:58:00,
2013-03-19 03:03:00,28.2,21.9,30.22,SSW,202,0.0,0.0,77,0.00,CLR,FEW,0.00,WeatherDisplay:10.37,2013-03-19 10:03:00,
2013-03-19 03:08:00,28.2,21.9,30.22,SSW,202,0.0,0.0,77,0.00,CLR,FEW,0.00,WeatherDisplay:10.37,2013-03-19 10:08:00,
2013-03-19 03:13:00,28.0,21.8,30.22,SSW,202,3.5,3.5,77,0.00,CLR,FEW,0.00,WeatherDisplay:10.37,2013-03-19 10:13:00,
2013-03-19 03:18:00,27.7,21.4,30.22,South,180,0.0,0.0,77,0.00,CLR,FEW,0.00,WeatherDisplay:10.37,2013-03-19 10:18:00,
2013-03-19 03:23:00,28.0,22.1,30.22,South,180,0.0,0.0,78,0.00,CLR,FEW,0.00,WeatherDisplay:10.37,2013-03-19 10:23:00,
2013-03-19 03:28:00,28.0,22.1,30.22,South,180,0.0,0.0,78,0.00,CLR,FEW,0.00,WeatherDisplay:10.37,2013-03-19 10:28:00,
2013-03-19 03:33:00,28.0,22.1,30.22,South,180,2.3,2.3,78,0.00,CLR,FEW,0.00,WeatherDisplay:10.37,2013-03-19 10:33:00,
2013-03-19 03:38:00,28.0,22.1,30.23,SSW,202,3.5,3.5,78,0.00,CLR,FEW,0.00,WeatherDisplay:10.37,2013-03-19 10:38:00,
2013-03-19 03:43:00,27.7,21.7,30.23,SSW,202,0.0,0.0,78,0.00,CLR,FEW,0.00,WeatherDisplay:10.37,2013-03-19 10:43:00,
2013-03-19 03:48:00,27.7,21.7,30.22,SSW,202,0.0,0.0,78,0.00,CLR,FEW,0.00,WeatherDisplay:10.37,2013-03-19 10:48:00,
2013-03-19 03:53:00,27.5,21.5,30.23,SSW,202,0.0,0.0,78,0.00,CLR,FEW,0.00,WeatherDisplay:10.37,2013-03-19 10:53:00,
2013-03-19 03:58:00,27.3,21.4,30.22,SSW,202,0.0,0.0,78,0.00,CLR,FEW,0.00,WeatherDisplay:10.37,2013-03-19 10:58:00,
2013-03-19 04:03:00,27.1,21.2,30.23,SSW,202,0.0,0.0,78,0.00,CLR,FEW,0.00,WeatherDisplay:10.37,2013-03-19 11:03:00,
2013-03-19 04:08:00,27.1,21.2,30.23,SSW,202,0.0,0.0,78,0.00,CLR,FEW,0.00,WeatherDisplay:10.37,2013-03-19 11:08:00,
2013-03-19 04:13:00,27.1,21.5,30.23,SSW,202,0.0,0.0,79,0.00,CLR,FEW,0.00,WeatherDisplay:10.37,2013-03-19 11:13:00,
2013-03-19 04:18:00,27.1,21.5,30.23,SSW,202,0.0,0.0,79,0.00,CLR,FEW,0.00,WeatherDisplay:10.37,2013-03-19 11:18:00,
2013-03-19 04:23:00,27.1,21.5,30.23,SSW,202,0.0,0.0,79,0.00,CLR,FEW,0.00,WeatherDisplay:10.37,2013-03-19 11:23:00,
2013-03-19 04:28:00,27.0,21.3,30.23,SSW,202,0.0,0.0,79,0.00,CLR,FEW,0.00,WeatherDisplay:10.37,2013-03-19 11:28:00,
2013-03-19 04:33:00,26.8,21.1,30.24,SSW,202,0.0,0.0,79,0.00,CLR,FEW,0.00,WeatherDisplay:10.37,2013-03-19 11:33:00,
2013-03-19 04:38:00,26.8,21.1,30.24,SSW,202,0.0,0.0,79,0.00,CLR,FEW,0.00,WeatherDisplay:10.37,2013-03-19 11:38:00,
2013-03-19 04:43:00,26.8,21.1,30.23,SSW,202,2.3,2.3,79,0.00,CLR,FEW,0.00,WeatherDisplay:10.37,2013-03-19 11:43:00,
2013-03-19 04:48:00,26.4,20.8,30.24,SSW,202,0.0,0.0,79,0.00,CLR,FEW,0.00,WeatherDisplay:10.37,2013-03-19 11:48:00,
2013-03-19 04:53:00,26.4,20.8,30.24,SSW,202,0.0,0.0,79,0.00,CLR,FEW,0.00,WeatherDisplay:10.37,2013-03-19 11:53:00,
2013-03-19 04:58:00,26.2,20.6,30.24,SSW,202,0.0,0.0,79,0.00,CLR,FEW,0.00,WeatherDisplay:10.37,2013-03-19 11:58:00,
2013-03-19 05:03:00,26.2,20.6,30.24,SSW,202,0.0,0.0,79,0.00,CLR,FEW,0.00,WeatherDisplay:10.37,2013-03-19 12:03:00,
2013-03-19 05:08:00,26.1,20.4,30.24,SSW,202,0.0,0.0,79,0.00,CLR,FEW,0.00,WeatherDisplay:10.37,2013-03-19 12:08:00,
2013-03-19 05:13:00,25.9,20.3,30.24,SSW,202,0.0,0.0,79,0.00,CLR,FEW,0.00,WeatherDisplay:10.37,2013-03-19 12:13:00,
2013-03-19 05:18:00,25.9,20.3,30.24,SSW,202,0.0,0.0,79,0.00,CLR,FEW,0.00,WeatherDisplay:10.37,2013-03-19 12:18:00,
2013-03-19 05:23:00,25.7,20.1,30.24,SSW,202,0.0,0.0,79,0.00,CLR,FEW,0.00,WeatherDisplay:10.37,2013-03-19 12:23:00,
2013-03-19 05:28:00,25.5,19.9,30.24,SSW,202,2.3,2.3,79,0.00,CLR,FEW,0.00,WeatherDisplay:10.37,2013-03-19 12:28:00,
2013-03-19 05:33:00,25.3,20.0,30.24,SSW,202,0.0,0.0,80,0.00,CLR,FEW,0.00,WeatherDisplay:10.37,2013-03-19 12:33:00,
2013-03-19 05:38:00,25.2,19.9,30.24,SSW,202,2.3,2.3,80,0.00,CLR,FEW,0.00,WeatherDisplay:10.37,2013-03-19 12:38:00,
2013-03-19 05:43:00,25.2,19.9,30.24,SSW,202,0.0,0.0,80,0.00,CLR,FEW,0.00,WeatherDisplay:10.37,2013-03-19 12:43:00,
2013-03-19 05:48:00,25.0,19.7,30.24,SSW,202,0.0,0.0,80,0.00,CLR,FEW,0.00,WeatherDisplay:10.37,2013-03-19 12:48:00,
2013-03-19 05:53:00,25.0,19.7,30.25,SSW,202,0.0,0.0,80,0.00,CLR,FEW,0.00,WeatherDisplay:10.37,2013-03-19 12:53:00,
2013-03-19 05:58:00,25.0,19.7,30.25,SSW,202,0.0,0.0,80,0.00,CLR,FEW,0.00,WeatherDisplay:10.37,2013-03-19 12:58:00,
2013-03-19 06:03:00,25.0,19.7,30.25,SSW,202,0.0,0.0,80,0.00,CLR,FEW,0.00,WeatherDisplay:10.37,2013-03-19 13:03:00,
2013-03-19 06:08:00,25.0,19.7,30.25,SSW,202,0.0,0.0,80,0.00,CLR,FEW,0.00,WeatherDisplay:10.37,2013-03-19 13:08:00,
2013-03-19 06:13:00,25.0,19.7,30.26,SSW,202,0.0,0.0,80,0.00,CLR,FEW,0.00,WeatherDisplay:10.37,2013-03-19 13:13:00,
2013-03-19 06:18:00,24.8,19.5,30.26,SSW,202,0.0,0.0,80,0.00,CLR,FEW,0.00,WeatherDisplay:10.37,2013-03-19 13:18:00,
2013-03-19 06:23:00,24.6,19.6,30.26,SSW,202,0.0,0.0,81,0.00,CLR,FEW,0.00,WeatherDisplay:10.37,2013-03-19 13:23:00,
2013-03-19 06:28:00,24.6,19.6,30.26,SSW,202,0.0,0.0,81,0.00,CLR,FEW,0.00,WeatherDisplay:10.37,2013-03-19 13:28:00,
2013-03-19 06:33:00,24.6,19.6,30.26,SSW,202,0.0,0.0,81,0.00,CLR,FEW,0.00,WeatherDisplay:10.37,2013-03-19 13:33:00,
2013-03-19 06:39:00,24.4,19.4,30.26,SSW,202,0.0,0.0,81,0.00,CLR,FEW,0.00,WeatherDisplay:10.37,2013-03-19 13:39:00,
2013-03-19 06:44:00,24.4,19.4,30.26,SSW,202,0.0,0.0,81,0.00,CLR,FEW,0.00,WeatherDisplay:10.37,2013-03-19 13:44:00,
2013-03-19 06:49:00,24.4,19.4,30.26,SSW,202,0.0,0.0,81,0.00,CLR,FEW,0.00,WeatherDisplay:10.37,2013-03-19 13:49:00,
2013-03-19 06:54:00,24.4,19.4,30.26,SSW,202,0.0,0.0,81,0.00,CLR,FEW,0.00,WeatherDisplay:10.37,2013-03-19 13:54:00,
2013-03-19 06:59:00,24.4,19.4,30.27,SSW,202,0.0,0.0,81,0.00,CLR,FEW,0.00,WeatherDisplay:10.37,2013-03-19 13:59:00,
2013-03-19 07:04:00,24.4,19.4,30.27,SSW,202,0.0,0.0,81,0.00,CLR,FEW,0.00,WeatherDisplay:10.37,2013-03-19 14:04:00,
2013-03-19 07:09:00,24.4,19.4,30.27,South,180,0.0,0.0,81,0.00,CLR,FEW,0.00,WeatherDisplay:10.37,2013-03-19 14:09:00,
2013-03-19 07:14:00,24.4,19.4,30.27,South,180,0.0,0.0,81,0.00,CLR,FEW,0.00,WeatherDisplay:10.37,2013-03-19 14:14:00,
2013-03-19 07:19:00,24.6,19.6,30.27,South,180,0.0,0.0,81,0.00,CLR,FEW,0.00,WeatherDisplay:10.37,2013-03-19 14:19:00,
2013-03-19 07:24:00,24.6,19.6,30.27,South,180,0.0,0.0,81,0.00,CLR,FEW,0.00,WeatherDisplay:10.37,2013-03-19 14:24:00,
2013-03-19 07:29:00,25.0,20.0,30.27,South,180,0.0,0.0,81,0.00,CLR,FEW,0.00,WeatherDisplay:10.37,2013-03-19 14:29:00,
2013-03-19 07:34:00,25.0,20.0,30.27,South,180,0.0,0.0,81,0.00,CLR,FEW,0.00,WeatherDisplay:10.37,2013-03-19 14:34:00,
2013-03-19 07:39:00,25.2,20.1,30.27,South,180,0.0,0.0,81,0.00,CLR,FEW,0.00,WeatherDisplay:10.37,2013-03-19 14:39:00,
2013-03-19 07:44:00,26.2,21.5,30.27,South,180,0.0,0.0,82,0.00,CLR,FEW,0.00,WeatherDisplay:10.37,2013-03-19 14:44:00,
2013-03-19 07:49:00,32.4,27.5,30.27,South,180,0.0,0.0,82,0.00,CLR,FEW,0.00,WeatherDisplay:10.37,2013-03-19 14:49:00,
2013-03-19 07:54:00,36.3,30.4,30.27,South,180,0.0,0.0,79,0.00,CLR,FEW,0.00,WeatherDisplay:10.37,2013-03-19 14:54:00,
2013-03-19 07:59:00,39.9,32.3,30.27,South,180,0.0,0.0,74,0.00,CLR,FEW,0.00,WeatherDisplay:10.37,2013-03-19 14:59:00,
2013-03-19 08:04:00,44.2,35.1,30.27,South,180,0.0,0.0,70,0.00,CLR,FEW,0.00,WeatherDisplay:10.37,2013-03-19 15:04:00,
2013-03-19 08:09:00,46.2,35.5,30.27,South,180,0.0,0.0,66,0.00,CLR,FEW,0.00,WeatherDisplay:10.37,2013-03-19 15:09:00,
2013-03-19 08:14:00,48.0,36.0,30.27,South,180,0.0,0.0,63,0.00,CLR,FEW,0.00,WeatherDisplay:10.37,2013-03-19 15:14:00,
2013-03-19 08:19:00,49.6,35.5,30.27,South,180,0.0,0.0,58,0.00,CLR,FEW,0.00,WeatherDisplay:10.37,2013-03-19 15:19:00,
2013-03-19 08:24:00,51.4,35.8,30.27,South,180,0.0,0.0,55,0.00,CLR,FEW,0.00,WeatherDisplay:10.37,2013-03-19 15:24:00,
2013-03-19 08:29:00,52.7,35.6,30.28,South,180,0.0,0.0,52,0.00,CLR,FEW,0.00,WeatherDisplay:10.37,2013-03-19 15:29:00,
2013-03-19 08:34:00,52.7,35.1,30.28,South,180,0.0,0.0,51,0.00,CLR,FEW,0.00,WeatherDisplay:10.37,2013-03-19 15:34:00,
2013-03-19 08:39:00,53.8,35.1,30.27,South,180,0.0,0.0,49,0.00,CLR,FEW,0.00,WeatherDisplay:10.37,2013-03-19 15:39:00,
2013-03-19 08:44:00,53.2,34.0,30.28,South,180,0.0,0.0,48,0.00,CLR,FEW,0.00,WeatherDisplay:10.37,2013-03-19 15:44:00,
2013-03-19 08:49:00,51.6,32.6,30.28,South,180,0.0,0.0,48,0.00,CLR,FEW,0.00,WeatherDisplay:10.37,2013-03-19 15:49:00,
2013-03-19 08:54:00,50.9,32.4,30.27,South,180,0.0,0.0,49,0.00,CLR,FEW,0.00,WeatherDisplay:10.37,2013-03-19 15:54:00,
2013-03-19 08:59:00,50.2,32.2,30.27,South,180,0.0,0.0,50,0.00,CLR,FEW,0.00,WeatherDisplay:10.37,2013-03-19 15:59:00,
2013-03-19 09:04:00,49.6,31.7,30.27,South,180,0.0,0.0,50,0.00,CLR,FEW,0.00,WeatherDisplay:10.37,2013-03-19 16:04:00,
2013-03-19 09:09:00,47.8,30.1,30.27,South,180,0.0,0.0,50,0.00,CLR,FEW,0.00,WeatherDisplay:10.37,2013-03-19 16:09:00,
2013-03-19 09:14:00,45.7,29.0,30.27,South,180,0.0,0.0,52,0.00,CLR,FEW,0.00,WeatherDisplay:10.37,2013-03-19 16:14:00,
2013-03-19 09:19:00,44.8,28.7,30.27,South,180,0.0,0.0,53,0.00,CLR,FEW,0.00,WeatherDisplay:10.37,2013-03-19 16:19:00,
2013-03-19 09:24:00,43.7,28.1,30.27,South,180,0.0,0.0,54,0.00,CLR,FEW,0.00,WeatherDisplay:10.37,2013-03-19 16:24:00,
2013-03-19 09:29:00,42.6,28.0,30.27,SSE,158,0.0,0.0,56,0.00,CLR,FEW,0.00,WeatherDisplay:10.37,2013-03-19 16:29:00,
2013-03-19 09:34:00,42.1,27.9,30.27,SSE,158,0.0,0.0,57,0.00,CLR,FEW,0.00,WeatherDisplay:10.37,2013-03-19 16:34:00,
2013-03-19 09:39:00,41.7,27.6,30.27,SSE,158,0.0,0.0,57,0.00,CLR,FEW,0.00,WeatherDisplay:10.37,2013-03-19 16:39:00,
2013-03-19 09:44:00,41.5,27.4,30.26,SSE,158,0.0,0.0,57,0.00,CLR,FEW,0.00,WeatherDisplay:10.37,2013-03-19 16:44:00,
2013-03-19 09:49:00,41.7,28.0,30.26,SSE,158,0.0,0.0,58,0.00,CLR,FEW,0.00,WeatherDisplay:10.37,2013-03-19 16:49:00,
2013-03-19 09:54:00,42.4,28.7,30.25,SSE,158,0.0,0.0,58,0.00,CLR,FEW,0.00,WeatherDisplay:10.37,2013-03-19 16:54:00,
2013-03-19 09:59:00,42.6,28.4,30.25,SSE,158,3.5,3.5,57,0.00,CLR,FEW,0.00,WeatherDisplay:10.37,2013-03-19 16:59:00,
2013-03-19 10:04:00,42.4,28.7,30.25,SSE,158,2.7,2.7,58,0.00,CLR,FEW,0.00,WeatherDisplay:10.37,2013-03-19 17:04:00,
2013-03-19 10:09:00,42.4,28.7,30.25,SSE,158,0.0,0.0,58,0.00,CLR,FEW,0.00,WeatherDisplay:10.37,2013-03-19 17:09:00,
2013-03-19 10:14:00,42.4,28.7,30.25,ESE,112,0.0,0.0,58,0.00,CLR,FEW,0.00,WeatherDisplay:10.37,2013-03-19 17:14:00,
2013-03-19 10:19:00,43.2,29.4,30.25,ESE,112,0.0,0.0,58,0.00,CLR,FEW,0.00,WeatherDisplay:10.37,2013-03-19 17:19:00,
2013-03-19 10:24:00,43.5,29.7,30.24,ESE,112,0.0,0.0,58,0.00,CLR,FEW,0.00,WeatherDisplay:10.37,2013-03-19 17:24:00,
2013-03-19 10:29:00,43.5,28.8,30.24,ENE,68,4.6,4.6,56,0.00,CLR,FEW,0.00,WeatherDisplay:10.37,2013-03-19 17:29:00,
2013-03-19 10:34:00,43.5,28.8,30.24,NNE,22,2.3,2.3,56,0.00,CLR,FEW,0.00,WeatherDisplay:10.37,2013-03-19 17:34:00,
2013-03-19 10:39:00,43.9,29.2,30.24,North,0,0.0,0.1,56,0.00,CLR,FEW,0.00,WeatherDisplay:10.37,2013-03-19 17:39:00,
2013-03-19 10:44:00,45.0,29.8,30.23,NW,315,3.5,3.5,55,0.00,CLR,FEW,0.00,WeatherDisplay:10.37,2013-03-19 17:44:00,
2013-03-19 10:49:00,45.1,29.5,30.23,NW,315,2.3,0.0,54,0.00,CLR,FEW,0.00,WeatherDisplay:10.37,2013-03-19 17:49:00,
2013-03-19 10:54:00,45.5,30.3,30.23,North,0,2.3,2.3,55,0.00,CLR,FEW,0.00,WeatherDisplay:10.37,2013-03-19 17:54:00,
2013-03-19 10:59:00,45.7,30.0,30.22,East,90,4.6,4.6,54,0.00,CLR,FEW,0.00,WeatherDisplay:10.37,2013-03-19 17:59:00,
2013-03-19 11:04:00,45.7,30.4,30.22,NE,45,4.6,4.6,55,0.00,CLR,FEW,0.00,WeatherDisplay:10.37,2013-03-19 18:04:00,
2013-03-19 11:09:00,45.5,30.3,30.22,NNW,338,3.5,3.5,55,0.00,CLR,FEW,0.00,WeatherDisplay:10.37,2013-03-19 18:09:00,
2013-03-19 11:14:00,46.2,30.0,30.21,WNW,292,4.2,4.2,53,0.00,CLR,FEW,0.00,WeatherDisplay:10.37,2013-03-19 18:14:00,
2013-03-19 11:19:00,46.2,30.0,30.21,NW,315,3.5,3.5,53,0.00,CLR,FEW,0.00,WeatherDisplay:10.37,2013-03-19 18:19:00,
2013-03-19 11:24:00,46.8,30.5,30.21,WNW,292,0.0,0.0,53,0.00,CLR,FEW,0.00,WeatherDisplay:10.37,2013-03-19 18:24:00,
2013-03-19 11:29:00,47.7,31.4,30.20,SW,225,0.0,0.0,53,0.00,CLR,FEW,0.00,WeatherDisplay:10.37,2013-03-19 18:29:00,
2013-03-19 11:34:00,48.0,31.2,30.20,SSE,158,0.0,0.0,52,0.00,CLR,FEW,0.00,WeatherDisplay:10.37,2013-03-19 18:34:00,
2013-03-19 11:40:00,48.0,31.2,30.20,SE,135,2.3,2.3,52,0.00,CLR,FEW,0.00,WeatherDisplay:10.37,2013-03-19 18:40:00,
2013-03-19 11:45:00,48.0,31.2,30.20,ESE,112,5.8,5.8,52,0.00,CLR,FEW,0.00,WeatherDisplay:10.37,2013-03-19 18:45:00,
2013-03-19 11:50:00,48.0,30.7,30.19,SE,135,2.3,2.7,51,0.00,CLR,FEW,0.00,WeatherDisplay:10.37,2013-03-19 18:50:00,
2013-03-19 11:55:00,48.4,31.5,30.19,SE,135,3.5,3.8,52,0.00,CLR,FEW,0.00,WeatherDisplay:10.37,2013-03-19 18:55:00,
2013-03-19 12:00:00,48.7,31.4,30.19,SE,135,6.9,6.9,51,0.00,CLR,FEW,0.00,WeatherDisplay:10.37,2013-03-19 19:00:00,
2013-03-19 12:05:00,48.7,31.4,30.18,ESE,112,4.6,4.6,51,0.00,CLR,FEW,0.00,WeatherDisplay:10.37,2013-03-19 19:05:00,
2013-03-19 12:10:00,48.7,31.4,30.18,East,90,4.6,4.6,51,0.00,CLR,FEW,0.00,WeatherDisplay:10.37,2013-03-19 19:10:00,
2013-03-19 12:15:00,48.7,31.4,30.18,East,90,4.6,4.9,51,0.00,CLR,FEW,0.00,WeatherDisplay:10.37,2013-03-19 19:15:00,
2013-03-19 12:20:00,49.1,31.2,30.17,ENE,68,3.6,3.6,50,0.00,CLR,FEW,0.00,WeatherDisplay:10.37,2013-03-19 19:20:00,
2013-03-19 12:25:00,49.1,31.2,30.17,East,90,4.6,4.6,50,0.00,CLR,FEW,0.00,WeatherDisplay:10.37,2013-03-19 19:25:00,
2013-03-19 12:30:00,49.6,32.2,30.16,East,90,5.8,5.8,51,0.00,CLR,FEW,0.00,WeatherDisplay:10.37,2013-03-19 19:30:00,
2013-03-19 12:35:00,49.8,32.4,30.16,ENE,68,4.6,4.6,51,0.00,CLR,FEW,0.00,WeatherDisplay:10.37,2013-03-19 19:35:00,
2013-03-19 12:40:00,50.4,32.9,30.16,East,90,1.6,1.6,51,0.00,CLR,FEW,0.00,WeatherDisplay:10.37,2013-03-19 19:40:00,
2013-03-19 12:45:00,50.7,32.7,30.16,NE,45,4.6,4.6,50,0.00,CLR,FEW,0.00,WeatherDisplay:10.37,2013-03-19 19:45:00,
2013-03-19 12:50:00,51.1,33.1,30.15,NNE,22,4.6,4.6,50,0.00,CLR,FEW,0.00,WeatherDisplay:10.37,2013-03-19 19:50:00,
2013-03-19 12:55:00,51.4,32.9,30.14,NE,45,2.3,2.3,49,0.00,CLR,FEW,0.00,WeatherDisplay:10.37,2013-03-19 19:55:00,
2013-03-19 13:00:00,51.6,32.6,30.14,NNE,22,5.8,5.8,48,0.00,CLR,FEW,0.00,WeatherDisplay:10.37,2013-03-19 20:00:00,
2013-03-19 13:05:00,52.0,32.9,30.14,NNE,22,0.0,0.0,48,0.00,CLR,FEW,0.00,WeatherDisplay:10.37,2013-03-19 20:05:00,
2013-03-19 13:10:00,52.2,32.5,30.13,ENE,68,0.0,0.0,47,0.00,CLR,FEW,0.00,WeatherDisplay:10.37,2013-03-19 20:10:00,
2013-03-19 13:15:00,52.9,33.2,30.12,ENE,68,6.9,6.9,47,0.00,CLR,FEW,0.00,WeatherDisplay:10.37,2013-03-19 20:15:00,
2013-03-19 13:20:00,52.9,33.2,30.12,NNE,22,4.6,4.7,47,0.00,CLR,FEW,0.00,WeatherDisplay:10.37,2013-03-19 20:20:00,
2013-03-19 13:25:00,53.4,33.1,30.11,NW,315,5.8,5.8,46,0.00,CLR,FEW,0.00,WeatherDisplay:10.37,2013-03-19 20:25:00,
2013-03-19 13:30:00,53.4,32.0,30.11,WSW,248,5.1,5.1,44,0.00,CLR,FEW,0.00,WeatherDisplay:10.37,2013-03-19 20:30:00,
2013-03-19 13:35:00,53.8,32.9,30.11,WNW,292,3.6,3.6,45,0.00,CLR,FEW,0.00,WeatherDisplay:10.37,2013-03-19 20:35:00,
2013-03-19 13:40:00,54.0,32.5,30.10,West,270,3.5,3.5,44,0.00,CLR,FEW,0.00,WeatherDisplay:10.37,2013-03-19 20:40:00,
2013-03-19 13:45:00,54.3,32.8,30.09,NW,315,3.5,3.5,44,0.00,CLR,FEW,0.00,WeatherDisplay:10.37,2013-03-19 20:45:00,
2013-03-19 13:50:00,54.3,32.8,30.09,NNW,338,6.9,6.9,44,0.00,CLR,FEW,0.00,WeatherDisplay:10.37,2013-03-19 20:50:00,
2013-03-19 13:55:00,54.7,33.2,30.09,NW,315,6.0,6.0,44,0.00,CLR,FEW,0.00,WeatherDisplay:10.37,2013-03-19 20:55:00,
2013-03-19 14:00:00,54.7,32.6,30.08,NW,315,0.0,0.0,43,0.00,CLR,FEW,0.00,WeatherDisplay:10.37,2013-03-19 21:00:00,
2013-03-19 14:05:00,54.9,33.3,30.08,North,0,2.3,2.3,44,0.00,CLR,FEW,0.00,WeatherDisplay:10.37,2013-03-19 21:05:00,
2013-03-19 14:10:00,55.2,33.1,30.08,NNW,338,5.8,5.8,43,0.00,CLR,FEW,0.00,WeatherDisplay:10.37,2013-03-19 21:10:00,
2013-03-19 14:15:00,55.2,32.5,30.07,West,270,3.5,3.5,42,0.00,CLR,FEW,0.00,WeatherDisplay:10.37,2013-03-19 21:15:00,
2013-03-19 14:20:00,55.2,33.1,30.07,NW,315,8.1,8.1,43,0.00,CLR,FEW,0.00,WeatherDisplay:10.37,2013-03-19 21:20:00,
2013-03-19 14:25:00,55.2,32.5,30.06,NNW,338,4.6,4.6,42,0.00,CLR,FEW,0.00,WeatherDisplay:10.37,2013-03-19 21:25:00,
2013-03-19 14:30:00,55.4,32.7,30.06,SSW,202,6.9,6.9,42,0.00,CLR,FEW,0.00,WeatherDisplay:10.37,2013-03-19 21:30:00,
2013-03-19 14:35:00,55.4,32.7,30.06,West,270,2.7,2.7,42,0.00,CLR,FEW,0.00,WeatherDisplay:10.37,2013-03-19 21:35:00,
2013-03-19 14:40:00,55.8,32.4,30.06,West,270,2.2,2.2,41,0.00,CLR,FEW,0.00,WeatherDisplay:10.37,2013-03-19 21:40:00,
2013-03-19 14:45:00,55.9,31.9,30.06,West,270,2.3,2.3,40,0.00,CLR,FEW,0.00,WeatherDisplay:10.37,2013-03-19 21:45:00,
2013-03-19 14:50:00,56.1,32.7,30.05,North,0,3.8,3.8,41,0.00,CLR,FEW,0.00,WeatherDisplay:10.37,2013-03-19 21:50:00,
2013-03-19 14:55:00,56.1,32.7,30.05,NNW,338,4.6,5.1,41,0.00,CLR,FEW,0.00,WeatherDisplay:10.37,2013-03-19 21:55:00,
2013-03-19 15:00:00,56.5,32.4,30.05,NNW,338,4.6,4.6,40,0.00,CLR,FEW,0.00,WeatherDisplay:10.37,2013-03-19 22:00:00,
2013-03-19 15:05:00,56.5,32.4,30.04,NNW,338,2.3,2.3,40,0.00,CLR,FEW,0.00,WeatherDisplay:10.37,2013-03-19 22:05:00,
2013-03-19 15:10:00,56.5,31.8,30.04,NNW,338,4.6,4.6,39,0.00,CLR,FEW,0.00,WeatherDisplay:10.37,2013-03-19 22:10:00,
2013-03-19 15:15:00,56.5,32.4,30.04,NNW,338,4.6,4.6,40,0.00,CLR,FEW,0.00,WeatherDisplay:10.37,2013-03-19 22:15:00,
2013-03-19 15:20:00,56.5,31.8,30.03,NNW,338,4.6,4.6,39,0.00,CLR,FEW,0.00,WeatherDisplay:10.37,2013-03-19 22:20:00,
2013-03-19 15:25:00,56.1,31.5,30.03,ESE,112,0.0,0.0,39,0.00,CLR,FEW,0.00,WeatherDisplay:10.37,2013-03-19 22:25:00,
2013-03-19 15:30:00,56.3,31.6,30.02,ESE,112,0.0,0.0,39,0.00,CLR,FEW,0.00,WeatherDisplay:10.37,2013-03-19 22:30:00,
2013-03-19 15:35:00,56.5,31.8,30.02,SW,225,3.5,3.5,39,0.00,CLR,FEW,0.00,WeatherDisplay:10.37,2013-03-19 22:35:00,
2013-03-19 15:40:00,56.5,31.8,30.02,West,270,3.5,3.5,39,0.00,CLR,FEW,0.00,WeatherDisplay:10.37,2013-03-19 22:40:00,
2013-03-19 15:45:00,56.5,31.8,30.02,WSW,248,0.0,0.0,39,0.00,CLR,FEW,0.00,WeatherDisplay:10.37,2013-03-19 22:45:00,
2013-03-19 15:50:00,56.5,31.8,30.02,WSW,248,0.0,0.0,39,0.00,CLR,FEW,0.00,WeatherDisplay:10.37,2013-03-19 22:50:00,
2013-03-19 15:55:00,56.5,31.8,30.01,WSW,248,0.0,0.0,39,0.00,CLR,FEW,0.00,WeatherDisplay:10.37,2013-03-19 22:55:00,
2013-03-19 16:00:00,56.5,31.8,30.01,WSW,248,0.0,0.0,39,0.00,CLR,FEW,0.00,WeatherDisplay:10.37,2013-03-19 23:00:00,
2013-03-19 16:05:00,56.5,31.8,30.01,WSW,248,0.0,0.0,39,0.00,CLR,FEW,0.00,WeatherDisplay:10.37,2013-03-19 23:05:00,
2013-03-19 16:10:00,56.5,31.8,30.01,SW,225,3.5,3.5,39,0.00,CLR,FEW,0.00,WeatherDisplay:10.37,2013-03-19 23:10:00,
2013-03-19 16:15:00,56.5,32.4,30.00,SW,225,0.0,0.0,40,0.00,CLR,FEW,0.00,WeatherDisplay:10.37,2013-03-19 23:15:00,
2013-03-19 16:20:00,56.5,32.4,30.00,SW,225,0.0,0.0,40,0.00,CLR,FEW,0.00,WeatherDisplay:10.37,2013-03-19 23:20:00,
2013-03-19 16:25:00,56.7,32.0,30.00,SW,225,0.0,0.0,39,0.00,CLR,FEW,0.00,WeatherDisplay:10.37,2013-03-19 23:25:00,
2013-03-19 16:30:00,56.8,32.1,29.99,SW,225,0.0,0.0,39,0.00,CLR,FEW,0.00,WeatherDisplay:10.37,2013-03-19 23:30:00,
2013-03-19 16:35:00,56.8,32.1,29.99,SW,225,0.0,0.0,39,0.00,CLR,FEW,0.00,WeatherDisplay:10.37,2013-03-19 23:35:00,
2013-03-19 16:40:00,57.0,32.3,29.99,SW,225,0.0,0.0,39,0.00,CLR,FEW,0.00,WeatherDisplay:10.37,2013-03-19 23:40:00,
2013-03-19 16:45:00,57.0,32.3,29.98,SW,225,0.0,0.0,39,0.00,CLR,FEW,0.00,WeatherDisplay:10.37,2013-03-19 23:45:00,
2013-03-19 16:50:00,57.0,32.3,29.99,SW,225,0.0,0.0,39,0.00,CLR,FEW,0.00,WeatherDisplay:10.37,2013-03-19 23:50:00,
2013-03-19 16:55:00,57.0,32.3,29.98,SW,225,0.0,0.0,39,0.00,CLR,FEW,0.00,WeatherDisplay:10.37,2013-03-19 23:55:00,
2013-03-19 17:00:00,57.2,33.1,29.98,SW,225,0.0,0.0,40,0.00,CLR,FEW,0.00,WeatherDisplay:10.37,2013-03-20 00:00:00,
2013-03-19 17:05:00,57.2,33.1,29.97,West,270,0.0,0.0,40,0.00,CLR,FEW,0.00,WeatherDisplay:10.37,2013-03-20 00:05:00,
2013-03-19 17:10:00,57.0,32.9,29.97,West,270,0.0,0.0,40,0.00,CLR,FEW,0.00,WeatherDisplay:10.37,2013-03-20 00:10:00,
2013-03-19 17:15:00,57.0,32.9,29.97,West,270,0.0,0.0,40,0.00,CLR,FEW,0.00,WeatherDisplay:10.37,2013-03-20 00:15:00,
2013-03-19 17:20:00,57.0,32.9,29.97,West,270,0.0,0.0,40,0.00,CLR,FEW,0.00,WeatherDisplay:10.37,2013-03-20 00:20:00,
2013-03-19 17:25:00,56.8,33.4,29.97,West,270,0.0,0.0,41,0.00,CLR,FEW,0.00,WeatherDisplay:10.37,2013-03-20 00:25:00,
2013-03-19 17:30:00,56.8,33.4,29.96,West,270,0.0,0.0,41,0.00,CLR,FEW,0.00,WeatherDisplay:10.37,2013-03-20 00:30:00,
2013-03-19 17:35:00,56.7,33.2,29.96,West,270,0.0,0.0,41,0.00,CLR,FEW,0.00,WeatherDisplay:10.37,2013-03-20 00:35:00,
2013-03-19 17:40:00,56.5,33.0,29.95,West,270,0.0,0.0,41,0.00,CLR,FEW,0.00,WeatherDisplay:10.37,2013-03-20 00:40:00,
2013-03-19 17:45:00,56.3,32.9,29.94,West,270,0.0,0.0,41,0.00,CLR,FEW,0.00,WeatherDisplay:10.37,2013-03-20 00:45:00,
2013-03-19 17:50:00,56.1,33.3,29.95,West,270,0.0,0.0,42,0.00,CLR,FEW,0.00,WeatherDisplay:10.37,2013-03-20 00:50:00,
2013-03-19 17:55:00,56.1,33.3,29.94,West,270,0.0,0.0,42,0.00,CLR,FEW,0.00,WeatherDisplay:10.37,2013-03-20 00:55:00,
2013-03-19 18:00:00,55.6,32.8,29.94,West,270,0.0,0.0,42,0.00,CLR,FEW,0.00,WeatherDisplay:10.37,2013-03-20 01:00:00,
2013-03-19 18:05:00,55.4,34.4,29.94,West,270,0.0,0.0,45,0.00,CLR,FEW,0.00,WeatherDisplay:10.37,2013-03-20 01:05:00,
2013-03-19 18:10:00,55.0,34.6,29.94,SSW,202,2.7,2.7,46,0.00,CLR,FEW,0.00,WeatherDisplay:10.37,2013-03-20 01:10:00,
2013-03-19 18:15:00,54.7,35.4,29.94,SSW,202,1.1,0.0,48,0.00,CLR,FEW,0.00,WeatherDisplay:10.37,2013-03-20 01:15:00,
2013-03-19 18:20:00,54.5,35.2,29.94,SSW,202,0.0,0.0,48,0.00,CLR,FEW,0.00,WeatherDisplay:10.37,2013-03-20 01:20:00,
2013-03-19 18:25:00,54.1,35.9,29.93,SSW,202,0.0,0.0,50,0.00,CLR,FEW,0.00,WeatherDisplay:10.37,2013-03-20 01:25:00,
2013-03-19 18:30:00,53.8,35.6,29.93,SSW,202,0.0,0.0,50,0.00,CLR,FEW,0.00,WeatherDisplay:10.37,2013-03-20 01:30:00,
2013-03-19 18:35:00,53.8,35.1,29.93,SSW,202,0.0,0.0,49,0.00,CLR,FEW,0.00,WeatherDisplay:10.37,2013-03-20 01:35:00,
2013-03-19 18:40:00,53.4,34.7,29.93,SSW,202,0.0,0.0,49,0.00,CLR,FEW,0.00,WeatherDisplay:10.37,2013-03-20 01:40:00,
2013-03-19 18:45:00,53.2,35.1,29.93,SSW,202,0.0,0.0,50,0.00,CLR,FEW,0.00,WeatherDisplay:10.37,2013-03-20 01:45:00,
2013-03-19 18:50:00,52.9,34.7,29.93,SSW,202,0.0,0.0,50,0.00,CLR,FEW,0.00,WeatherDisplay:10.37,2013-03-20 01:50:00,
2013-03-19 18:55:00,52.5,35.4,29.93,SSW,202,0.0,0.0,52,0.00,CLR,FEW,0.00,WeatherDisplay:10.37,2013-03-20 01:55:00,
2013-03-19 19:00:00,52.3,35.7,29.92,SSW,202,2.3,2.3,53,0.00,CLR,FEW,0.00,WeatherDisplay:10.37,2013-03-20 02:00:00,
2013-03-19 19:05:00,51.8,35.2,29.92,South,180,0.0,0.0,53,0.00,CLR,FEW,0.00,WeatherDisplay:10.37,2013-03-20 02:05:00,
2013-03-19 19:10:00,51.4,34.9,29.92,South,180,0.0,0.0,53,0.00,CLR,FEW,0.00,WeatherDisplay:10.37,2013-03-20 02:10:00,
2013-03-19 19:15:00,51.3,35.2,29.92,South,180,0.0,0.0,54,0.00,CLR,FEW,0.00,WeatherDisplay:10.37,2013-03-20 02:15:00,
2013-03-19 19:20:00,51.1,35.0,29.91,South,180,0.0,0.0,54,0.00,CLR,FEW,0.00,WeatherDisplay:10.37,2013-03-20 02:20:00,
2013-03-19 19:25:00,50.9,35.3,29.92,South,180,0.0,0.0,55,0.00,CLR,FEW,0.00,WeatherDisplay:10.37,2013-03-20 02:25:00,
2013-03-19 19:30:00,50.5,35.4,29.91,South,180,0.0,0.0,56,0.00,CLR,FEW,0.00,WeatherDisplay:10.37,2013-03-20 02:30:00,
2013-03-19 19:35:00,50.2,35.5,29.91,South,180,0.0,0.0,57,0.00,CLR,FEW,0.00,WeatherDisplay:10.37,2013-03-20 02:35:00,
2013-03-19 19:40:00,49.6,35.5,29.91,South,180,0.0,0.0,58,0.00,CLR,FEW,0.00,WeatherDisplay:10.37,2013-03-20 02:40:00,
2013-03-19 19:45:00,49.6,35.0,29.91,South,180,0.0,0.0,57,0.00,CLR,FEW,0.00,WeatherDisplay:10.37,2013-03-20 02:45:00,
2013-03-19 19:50:00,49.6,35.5,29.91,South,180,0.0,0.0,58,0.00,CLR,FEW,0.00,WeatherDisplay:10.37,2013-03-20 02:50:00,
2013-03-19 19:55:00,49.1,35.4,29.90,South,180,0.0,0.0,59,0.00,CLR,FEW,0.00,WeatherDisplay:10.37,2013-03-20 02:55:00,
2013-03-19 20:00:00,48.7,35.5,29.91,South,180,0.0,0.0,60,0.00,CLR,FEW,0.00,WeatherDisplay:10.37,2013-03-20 03:00:00,
2013-03-19 20:05:00,48.6,34.9,29.90,South,180,2.3,2.3,59,0.00,CLR,FEW,0.00,WeatherDisplay:10.37,2013-03-20 03:05:00,
2013-03-19 20:10:00,48.4,35.1,29.90,South,180,1.6,1.6,60,0.00,CLR,FEW,0.00,WeatherDisplay:10.37,2013-03-20 03:10:00,
2013-03-19 20:15:00,48.0,34.8,29.90,South,180,0.0,0.0,60,0.00,CLR,FEW,0.00,WeatherDisplay:10.37,2013-03-20 03:15:00,
2013-03-19 20:20:00,48.0,35.2,29.91,South,180,0.0,0.0,61,0.00,CLR,FEW,0.00,WeatherDisplay:10.37,2013-03-20 03:20:00,
2013-03-19 20:25:00,47.7,35.3,29.91,South,180,0.0,0.0,62,0.00,CLR,FEW,0.00,WeatherDisplay:10.37,2013-03-20 03:25:00,
2013-03-19 20:30:00,47.5,35.1,29.90,South,180,0.0,0.0,62,0.00,CLR,FEW,0.00,WeatherDisplay:10.37,2013-03-20 03:30:00,
2013-03-19 20:35:00,47.5,35.1,29.90,South,180,0.0,0.0,62,0.00,CLR,FEW,0.00,WeatherDisplay:10.37,2013-03-20 03:35:00,
2013-03-19 20:40:00,47.3,34.9,29.90,South,180,0.0,0.0,62,0.00,CLR,FEW,0.00,WeatherDisplay:10.37,2013-03-20 03:40:00,
2013-03-19 20:45:00,47.3,35.3,29.90,South,180,0.0,0.0,63,0.00,CLR,FEW,0.00,WeatherDisplay:10.37,2013-03-20 03:45:00,
2013-03-19 20:50:00,47.3,35.3,29.90,South,180,0.0,0.0,63,0.00,CLR,FEW,0.00,WeatherDisplay:10.37,2013-03-20 03:50:00,
2013-03-19 20:55:00,46.9,35.4,29.90,South,180,0.0,0.0,64,0.00,CLR,FEW,0.00,WeatherDisplay:10.37,2013-03-20 03:55:00,
2013-03-19 21:00:00,46.9,35.8,29.89,South,180,0.0,0.0,65,0.00,CLR,FEW,0.00,WeatherDisplay:10.37,2013-03-20 04:00:00,
2013-03-19 21:05:00,46.6,35.4,29.89,South,180,0.0,0.0,65,0.00,CLR,FEW,0.00,WeatherDisplay:10.37,2013-03-20 04:05:00,
2013-03-19 21:10:00,46.6,35.8,29.89,South,180,0.0,0.0,66,0.00,CLR,FEW,0.00,WeatherDisplay:10.37,2013-03-20 04:10:00,
2013-03-19 21:15:00,46.4,35.7,29.89,South,180,0.0,0.0,66,0.00,CLR,FEW,0.00,WeatherDisplay:10.37,2013-03-20 04:15:00,
2013-03-19 21:20:00,46.4,35.7,29.89,South,180,0.0,0.0,66,0.00,CLR,FEW,0.00,WeatherDisplay:10.37,2013-03-20 04:20:00,
2013-03-19 21:25:00,46.2,35.5,29.89,South,180,0.0,0.0,66,0.00,CLR,FEW,0.00,WeatherDisplay:10.37,2013-03-20 04:25:00,
2013-03-19 21:30:00,46.2,35.5,29.89,South,180,0.0,0.0,66,0.00,CLR,FEW,0.00,WeatherDisplay:10.37,2013-03-20 04:30:00,
2013-03-19 21:35:00,46.2,35.5,29.89,South,180,0.0,0.0,66,0.00,CLR,FEW,0.00,WeatherDisplay:10.37,2013-03-20 04:35:00,
2013-03-19 21:40:00,46.2,35.9,29.89,South,180,0.0,0.0,67,0.00,CLR,FEW,0.00,WeatherDisplay:10.37,2013-03-20 04:40:00,
2013-03-19 21:45:00,46.0,35.7,29.89,South,180,0.0,0.0,67,0.00,CLR,FEW,0.00,WeatherDisplay:10.37,2013-03-20 04:45:00,
2013-03-19 21:50:00,46.0,36.1,29.88,South,180,0.0,0.0,68,0.00,CLR,FEW,0.00,WeatherDisplay:10.37,2013-03-20 04:50:00,
2013-03-19 21:55:00,45.7,35.7,29.88,South,180,0.0,0.0,68,0.00,CLR,FEW,0.00,WeatherDisplay:10.37,2013-03-20 04:55:00,
2013-03-19 22:00:00,45.7,35.7,29.88,South,180,0.0,0.0,68,0.00,CLR,FEW,0.00,WeatherDisplay:10.37,2013-03-20 05:00:00,
2013-03-19 22:05:00,45.7,35.7,29.88,South,180,0.0,0.0,68,0.00,CLR,FEW,0.00,WeatherDisplay:10.37,2013-03-20 05:05:00,
2013-03-19 22:10:00,45.7,35.7,29.87,South,180,0.0,0.0,68,0.00,CLR,FEW,0.00,WeatherDisplay:10.37,2013-03-20 05:10:00,
2013-03-19 22:15:00,45.7,35.7,29.87,South,180,0.0,0.0,68,0.00,CLR,FEW,0.00,WeatherDisplay:10.37,2013-03-20 05:15:00,
2013-03-19 22:20:00,45.7,35.7,29.87,South,180,0.0,0.0,68,0.00,CLR,FEW,0.00,WeatherDisplay:10.37,2013-03-20 05:20:00,
2013-03-19 22:25:00,45.5,35.5,29.87,South,180,0.0,0.0,68,0.00,CLR,FEW,0.00,WeatherDisplay:10.37,2013-03-20 05:25:00,
2013-03-19 22:30:00,45.3,35.4,29.86,South,180,0.0,0.0,68,0.00,CLR,FEW,0.00,WeatherDisplay:10.37,2013-03-20 05:30:00,
2013-03-19 22:35:00,45.1,35.6,29.86,South,180,0.0,0.0,69,0.00,CLR,FEW,0.00,WeatherDisplay:10.37,2013-03-20 05:35:00,
2013-03-19 22:40:00,45.1,35.6,29.86,South,180,0.0,0.0,69,0.00,CLR,FEW,0.00,WeatherDisplay:10.37,2013-03-20 05:40:00,
2013-03-19 22:45:00,45.0,35.8,29.86,South,180,0.0,0.0,70,0.00,CLR,FEW,0.00,WeatherDisplay:10.37,2013-03-20 05:45:00,
2013-03-19 22:50:00,45.0,35.8,29.85,South,180,0.0,0.0,70,0.00,CLR,FEW,0.00,WeatherDisplay:10.37,2013-03-20 05:50:00,
2013-03-19 22:55:00,44.6,35.8,29.85,South,180,0.0,0.0,71,0.00,CLR,FEW,0.00,WeatherDisplay:10.37,2013-03-20 05:55:00,
2013-03-19 23:00:00,44.4,35.6,29.84,South,180,0.0,0.0,71,0.00,CLR,FEW,0.00,WeatherDisplay:10.37,2013-03-20 06:00:00,
2013-03-19 23:05:00,44.4,35.6,29.85,South,180,0.0,0.0,71,0.00,CLR,FEW,0.00,WeatherDisplay:10.37,2013-03-20 06:05:00,
2013-03-19 23:10:00,44.4,35.6,29.84,South,180,0.0,0.0,71,0.00,CLR,FEW,0.00,WeatherDisplay:10.37,2013-03-20 06:10:00,
2013-03-19 23:15:00,44.4,35.6,29.84,South,180,0.0,0.0,71,0.00,CLR,FEW,0.00,WeatherDisplay:10.37,2013-03-20 06:15:00,
2013-03-19 23:20:00,44.4,35.6,29.84,South,180,0.0,0.0,71,0.00,CLR,FEW,0.00,WeatherDisplay:10.37,2013-03-20 06:20:00,
2013-03-19 23:25:00,44.2,35.4,29.84,South,180,0.0,0.0,71,0.00,CLR,FEW,0.00,WeatherDisplay:10.37,2013-03-20 06:25:00,
2013-03-19 23:30:00,44.2,35.8,29.83,South,180,0.0,0.0,72,0.00,CLR,FEW,0.00,WeatherDisplay:10.37,2013-03-20 06:30:00,
2013-03-19 23:35:00,44.2,35.8,29.83,South,180,0.0,0.0,72,0.00,CLR,FEW,0.00,WeatherDisplay:10.37,2013-03-20 06:35:00,
2013-03-19 23:40:00,44.2,35.8,29.83,South,180,0.0,0.0,72,0.00,CLR,FEW,0.00,WeatherDisplay:10.37,2013-03-20 06:40:00,
2013-03-19 23:45:00,44.1,35.6,29.83,South,180,0.0,0.0,72,0.00,CLR,FEW,0.00,WeatherDisplay:10.37,2013-03-20 06:45:00,
2013-03-19 23:50:00,44.1,35.6,29.83,South,180,0.0,0.0,72,0.00,CLR,FEW,0.00,WeatherDisplay:10.37,2013-03-20 06:50:00,
2013-03-19 23:55:00,43.9,35.4,29.82,South,180,0.0,0.0,72,0.00,CLR,FEW,0.00,WeatherDisplay:10.37,2013-03-20 06:55:00,